Paducah, KY

5:15 PM CST on December 14, 2019 (GMT -0600)
Barkley Regional

Weather History for KPAH - November, 2019

Change the Weather History Date:

Friday, November 15, 2019

  Actual Average Record
Temperature  
Mean Temperature 35 °F 48 °F  
Max Temperature 49 °F 59 °F 80 °F (1955)
Min Temperature 21 °F 38 °F 16 °F (1940)
Degree Days  
Heating Degree Days 30 17  
Month to date heating degree days 385 210  
Since 1 July heating degree days 612 477  
Cooling Degree Days 0 0  
Month to date cooling degree days 0 0  
Year to date cooling degree days 1856 1538  
Moisture  
Dew Point 22 °F    
Average Humidity 66    
Maximum Humidity 92    
Minimum Humidity 31    
Precipitation  
Precipitation 0.00 in 0.15 in 1.27 in (1989)
Month to date precipitation 1.87 1.97  
Year to date precipitation 64.47 42.16  
Snow  
Snow 0.00 in 0.00 in 0.30 in (2018)
Month to date snowfall 1.2 0.0  
Since 1 July snowfall 1.2 0.1  
Since 1 September snowfall 1.2 0.1  
Snow Depth 0.00 in    
Sea Level Pressure  
Sea Level Pressure 30.37 in    
Wind  
Wind Speed 3 mph ()    
Max Wind Speed 14 mph    
Max Gust Speed 19 mph    
Visibility 8.3 miles    
Events      
T = Trace of Precipitation, MM = Missing Value Source: Averaged Metar Reports

Daily Weather History Graph

Daily Weather History Graph

Search for Another Location

Airport or City:

Astronomy

Nov. 15, 2019 Rise Set
Actual Time 6:33 AM CST 4:45 PM CST
Civil Twilight 6:05 AM CST 5:13 PM CST
Nautical Twilight 5:34 AM CST 5:44 PM CST
Astronomical Twilight 5:03 AM CST 6:15 PM CST
Moon 7:23 PM CST (11/15) 9:27 AM CST (11/15)
Length of Visible Light 11h 07m
Length of Day
10h 11m
Waning Gibbous, 90% of the Moon is Illuminated
Nov 15
Waning Gibbous
Nov 19
Last Quarter
Nov 26
New
Dec 4
First Quarter
Dec 11
Full

Hourly Weather History & Observations

Time (CST) Temp. Windchill Dew Point Humidity Pressure Visibility Wind Dir Wind Speed Gust Speed Precip Events Conditions
12:53 AM 28.9 °F - 24.1 °F 82% 30.38 in 10.0 mi Calm Calm - N/A   Clear
1:53 AM 25.0 °F - 21.9 °F 88% 30.38 in 7.0 mi Calm Calm - N/A   Clear
2:53 AM 27.0 °F - 23.0 °F 85% 30.37 in 6.0 mi Calm Calm - N/A   Clear
3:53 AM 23.0 °F - 19.9 °F 88% 30.38 in 6.0 mi Calm Calm - N/A   Clear
4:53 AM 24.1 °F - 21.0 °F 88% 30.39 in 3.0 mi Calm Calm - N/A   Clear
5:53 AM 21.0 °F - 17.1 °F 85% 30.40 in 5.0 mi Calm Calm - N/A   Clear
6:53 AM 21.9 °F - 19.0 °F 89% 30.42 in 3.0 mi Calm Calm - N/A   Clear
7:53 AM 28.9 °F - 26.1 °F 89% 30.43 in 4.0 mi Calm Calm - N/A   Clear
8:53 AM 35.1 °F 28.6 °F 28.0 °F 76% 30.42 in 6.0 mi North 8.1 mph - N/A   Haze
9:53 AM 37.9 °F 30.0 °F 25.0 °F 60% 30.42 in 9.0 mi North 12.7 mph - N/A   Clear
10:53 AM 41.0 °F 36.4 °F 26.1 °F 55% 30.41 in 10.0 mi NNW 6.9 mph - N/A   Clear
11:53 AM 44.1 °F 40.8 °F 25.0 °F 47% 30.38 in 10.0 mi NNE 5.8 mph - N/A   Clear
12:53 PM 46.0 °F 41.4 °F 24.1 °F 42% 30.36 in 10.0 mi NNE 9.2 mph - N/A   Clear
1:53 PM 48.0 °F - 23.0 °F 37% 30.34 in 10.0 mi NNE 9.2 mph - N/A   Clear
2:53 PM 48.9 °F - 19.9 °F 32% 30.34 in 10.0 mi North 10.4 mph - N/A   Clear
3:53 PM 46.9 °F - 19.0 °F 33% 30.34 in 10.0 mi North 10.4 mph - N/A   Clear
4:53 PM 41.0 °F 37.1 °F 19.0 °F 41% 30.33 in 10.0 mi NNE 5.8 mph - N/A   Clear
5:53 PM 37.9 °F 35.5 °F 19.9 °F 48% 30.33 in 10.0 mi NNW 3.5 mph - N/A   Clear
6:53 PM 36.0 °F 32.1 °F 19.9 °F 52% 30.35 in 10.0 mi NNE 4.6 mph - N/A   Clear
7:53 PM 34.0 °F 31.0 °F 21.0 °F 59% 30.34 in 10.0 mi NNE 3.5 mph - N/A   Clear
8:53 PM 30.9 °F - 21.0 °F 67% 30.34 in 10.0 mi Calm Calm - N/A   Clear
9:53 PM 28.0 °F - 21.9 °F 78% 30.35 in 10.0 mi Calm Calm - N/A   Clear
10:53 PM 28.0 °F - 21.0 °F 75% 30.34 in 10.0 mi Calm Calm - N/A   Clear
11:53 PM 28.0 °F - 21.9 °F 78% 30.33 in 10.0 mi Calm Calm - N/A   Clear